Location: Newark
(38.6492°N, 88.9193°W)
Time: 11:12:54
(UTC+00:00)

LightSail 2 - Pass Details

Date: 15 November 2019
Orbit: 696 x 730 km, 24.0° (Epoch: 08 December)

Event Time Altitude Azimuth Distance (km) Brightness Sun altitude
Exits shadow 11:28:28 - 232° (SW) 2,578 7.7 -13.6°
Reaches altitude 10° 11:30:17 10° 216° (SW) 2,210 7.5 -13.3°
Maximum altitude 11:32:31 13° 191° (S) 2,032 7.5 -12.9°
Drops below altitude 10° 11:34:43 10° 165° (SSE) 2,212 8.1 -12.5°
Sets 11:38:36 0° 138° (SE) 3,133 9.5 -11.7°
